1530482400.05,4377,14.31,73560.5,-3.35,-4.09,-4.09,0,*62
1530482401.27,4378,14.31,73560.5,-3.37,-4.17,-4.13,0,*6B
1530482402.49,4379,14.31,73552.3,-3.37,-4.13,-4.13,0,*6E
1530482403.7,4380,14.31,73556.0,-3.37,-4.13,-4.17,0,*6C
1530482404.92,4381,14.31,73560.0,-3.37,-4.17,-4.13,0,*6D
1530482406.14,4382,14.31,73554.3,-3.37,-4.13,-4.13,0,*6A
1530482407.34,4383,14.31,73554.0,-3.35,-4.09,-4.09,0,*69
1530482408.56,4384,14.31,73556.3,-3.37,-4.17,-4.13,0,*68
1530482409.75,4385,14.31,73554.5,-3.35,-4.13,-4.13,0,*6F
1530482410.95,4386,14.31,73554.3,-3.35,-4.09,-4.13,0,*67
1530482412.15,4387,14.31,73550.8,-3.35,-4.09,-4.09,0,*6D
1530482413.34,4388,14.31,73552.0,-3.35,-4.13,-4.09,0,*69
1530482414.54,4389,14.31,73560.0,-3.35,-4.13,-4.13,0,*63
1530482415.73,4390,14.31,73556.8,-3.35,-4.13,-4.13,0,*6B
1530482416.96,4391,14.31,73574.0,-3.37,-4.29,-4.29,0,*68
1530482418.17,4392,14.31,73574.3,-3.37,-4.45,-4.41,0,*6F
1530482419.38,4393,14.31,73558.0,-3.37,-4.45,-4.33,0,*6B
1530482420.59,4394,14.31,73548.8,-3.37,-4.45,-4.29,0,*67
1530482421.78,4395,14.31,73538.0,-3.35,-4.37,-4.25,0,*6D
1530482422.97,4396,14.31,73540.0,-3.35,-4.29,-4.17,0,*60
1530482424.2,4397,14.31,73554.3,-3.37,-4.33,-4.29,0,*65
1530482425.42,4398,14.31,73560.3,-3.37,-4.29,-4.33,0,*6A
1530482426.63,4399,14.31,73562.8,-3.35,-4.21,-4.21,0,*62
1530482427.85,4400,14.31,73562.5,-3.37,-4.21,-4.17,0,*62
1530482429.08,4401,14.31,73570.5,-3.37,-4.21,-4.21,0,*66
1530482430.27,4402,14.31,73568.8,-3.35,-4.17,-4.17,0,*67
1530482431.46,4403,14.31,73560.0,-3.35,-4.17,-4.17,0,*66
1530482432.65,4404,14.31,73558.5,-3.35,-4.17,-4.17,0,*61
1530482433.85,4405,14.31,73566.5,-3.35,-4.17,-4.13,0,*64
1530482435.06,4406,14.31,73576.8,-3.37,-4.17,-4.17,0,*61
1530482436.27,4407,14.31,73566.5,-3.37,-4.17,-4.17,0,*60
1530482437.5,4408,14.31,73564.3,-3.37,-4.21,-4.29,0,*67
1530482438.73,4409,14.31,73568.3,-3.37,-4.21,-4.21,0,*6E
1530482439.96,4410,14.31,73568.0,-3.37,-4.21,-4.21,0,*66
1530482441.19,4411,14.31,73564.5,-3.37,-4.21,-4.17,0,*62
1530482442.41,4412,14.31,73576.5,-3.37,-4.21,-4.17,0,*61
1530482443.63,4413,14.31,73578.0,-3.37,-4.21,-4.17,0,*60
1530482444.85,4414,14.31,73572.3,-3.37,-4.21,-4.17,0,*67
1530482446.05,4415,14.31,73564.5,-3.35,-4.17,-4.13,0,*65
1530482447.24,4416,14.31,73566.5,-3.35,-4.13,-4.09,0,*69
1530482448.43,4417,14.31,73554.0,-3.35,-4.09,-4.09,0,*63
1530482449.65,4418,14.31,73554.8,-3.35,-4.09,-4.01,0,*64
1530482450.85,4419,14.31,73558.5,-3.35,-4.09,-4.09,0,*6D
1530482452.04,4420,14.31,73566.0,-3.35,-4.09,-4.09,0,*67
1530482453.23,4421,14.31,73568.3,-3.35,-4.09,-3.95,0,*64
1530482454.43,4422,14.31,73574.8,-3.35,-4.13,-4.13,0,*65
1530482455.63,4423,14.31,73574.8,-3.35,-4.25,-4.17,0,*65
1530482456.82,4424,14.31,73568.5,-3.35,-4.17,-4.17,0,*63
1530482458.01,4425,14.31,73566.8,-3.35,-4.13,-4.09,0,*69
1530482459.21,4426,14.31,73570.3,-3.35,-4.09,-4.13,0,*6A
1530482460.4,4427,14.31,73574.5,-3.35,-4.13,-4.13,0,*60
1530482461.6,4428,14.31,73572.5,-3.35,-4.13,-4.13,0,*6F
1530482462.8,4429,14.31,73578.5,-3.35,-4.13,-4.13,0,*6E
1530482463.99,4430,14.31,73580.0,-3.35,-4.17,-4.13,0,*62
1530482465.19,4431,14.31,73566.5,-3.35,-4.17,-4.13,0,*63
1530482466.39,4432,14.31,73566.5,-3.35,-4.17,-4.13,0,*60
1530482467.58,4433,14.31,73568.0,-3.35,-4.17,-4.13,0,*61
1530482468.78,4434,14.31,73574.8,-3.35,-4.13,-4.13,0,*62
1530482470.0,4435,14.31,73580.3,-3.33,-4.13,-4.13,0,*65
1530482471.2,4436,14.31,73578.8,-3.35,-4.17,-4.13,0,*64
1530482472.39,4437,14.31,73578.3,-3.35,-4.17,-4.17,0,*61
1530482473.58,4438,14.31,73580.8,-3.35,-4.17,-4.17,0,*6E
1530482474.77,4439,14.31,73576.8,-3.35,-4.17,-4.17,0,*6F
1530482475.96,4440,14.31,73570.3,-3.35,-4.17,-4.17,0,*61
1530482477.18,4441,14.31,73552.3,-3.33,-4.13,-4.13,0,*66
1530482478.4,4442,14.31,73550.8,-3.33,-4.13,-4.09,0,*6E
1530482479.59,4443,14.31,73556.5,-3.35,-4.13,-4.13,0,*62
1530482480.79,4444,14.31,73568.0,-3.35,-4.09,-4.09,0,*65
1530482481.98,4445,14.31,73570.5,-3.35,-4.13,-4.09,0,*6F
1530482483.18,4446,14.31,73568.8,-3.35,-4.13,-4.13,0,*67
1530482484.4,4447,14.31,73550.5,-3.33,-4.13,-4.13,0,*60
1530482485.6,4448,14.31,73562.8,-3.35,-4.13,-4.25,0,*6C
1530482486.8,4449,14.31,73558.3,-3.35,-4.17,-4.25,0,*69
1530482487.99,4450,14.31,73526.5,-3.35,-4.17,-4.25,0,*61
1530482489.19,4451,14.31,73510.0,-3.35,-4.17,-4.25,0,*60
1530482490.39,4452,14.31,73542.5,-3.35,-4.25,-4.29,0,*6E
1530482491.59,4453,14.31,73554.0,-3.35,-4.29,-4.53,0,*6E
1530482492.78,4454,14.31,73556.8,-3.35,-4.49,-5.39,0,*62
1530482494.0,4455,14.31,73560.5,-3.35,-4.99,-5.93,0,*6E
1530482495.22,4456,14.31,73570.3,-3.33,-5.51,-6.09,0,*6E
1530482496.44,4457,14.31,73574.8,-3.35,-5.69,-6.59,0,*67
1530482497.67,4458,14.31,73568.3,-3.33,-6.35,-6.47,0,*6B
1530482498.89,4459,14.31,73566.3,-3.35,-6.19,-6.47,0,*62
1530482500.11,4460,14.31,73560.0,-3.33,-6.55,-6.47,0,*66
1530482501.34,4461,14.31,73564.3,-3.35,-6.35,-5.93,0,*6D
1530482502.56,4462,14.31,73566.0,-3.35,-5.81,-5.51,0,*6C
1530482503.79,4463,14.31,73568.0,-3.37,-5.43,-5.55,0,*65
1530482505.03,4464,14.31,73564.8,-3.37,-5.23,-5.47,0,*67
1530482506.31,4465,14.31,73560.8,-3.37,-5.23,-5.11,0,*65
1530482507.58,4466,14.31,73564.5,-3.37,-5.07,-4.81,0,*68
1530482508.82,4467,14.31,73564.0,-3.37,-4.93,-4.57,0,*6E
1530482510.05,4468,14.31,73550.3,-3.37,-4.93,-4.45,0,*62
1530482511.29,4469,14.31,73542.3,-3.37,-4.93,-4.41,0,*67
1530482512.51,4470,14.31,73538.0,-3.37,-4.57,-4.29,0,*69
1530482513.74,4471,14.31,73550.3,-3.37,-4.33,-4.21,0,*62
1530482514.96,4472,14.31,73540.3,-3.37,-4.21,-4.17,0,*67
1530482516.18,4473,14.31,73516.8,-3.37,-4.21,-4.17,0,*66
1530482517.4,4474,14.31,73508.3,-3.37,-4.21,-4.17,0,*61
1530482518.63,4475,14.31,73518.5,-3.37,-4.21,-4.17,0,*60
1530482519.82,4476,14.31,73546.0,-3.39,-4.21,-4.13,0,*69
1530482521.04,4477,14.31,73540.8,-3.37,-4.21,-4.17,0,*62
1530482522.27,4478,14.31,73542.5,-3.37,-4.21,-4.17,0,*6D
1530482523.49,4479,14.31,73558.5,-3.37,-4.21,-4.29,0,*61
1530482524.71,4480,14.31,73568.5,-3.37,-4.29,-4.33,0,*64
1530482525.93,4481,14.31,73566.5,-3.37,-4.33,-4.41,0,*6B
1530482527.18,4482,14.31,73560.8,-3.37,-4.53,-4.81,0,*62
1530482528.45,4483,14.25,73570.0,-3.37,-4.69,-5.03,0,*61
1530482529.67,4484,14.31,73570.8,-3.35,-5.07,-5.43,0,*69
1530482530.89,4485,14.31,73568.8,-3.35,-5.31,-5.43,0,*6D
1530482532.17,4486,14.31,73574.8,-3.37,-5.19,-5.23,0,*60
1530482533.44,4487,14.31,73576.3,-3.37,-5.19,-5.11,0,*60
1530482534.69,4488,14.31,73576.0,-3.35,-5.07,-4.89,0,*62
1530482535.96,4489,14.31,73568.5,-3.37,-5.19,-4.93,0,*65
1530482537.23,4490,14.31,73564.0,-3.37,-5.11,-5.03,0,*6D
1530482538.51,4491,14.31,73562.5,-3.37,-5.07,-5.03,0,*6B
1530482539.72,4492,14.31,73554.0,-3.35,-4.77,-4.99,0,*6E
1530482540.96,4493,14.25,73554.3,-3.35,-4.77,-4.89,0,*6E
1530482542.23,4494,14.31,73564.3,-3.37,-4.89,-5.23,0,*6B
1530482543.47,4495,14.31,73558.0,-3.37,-4.89,-5.43,0,*6C
1530482544.74,4496,14.31,73568.8,-3.37,-5.11,-5.61,0,*6F
1530482546.02,4497,14.31,73570.5,-3.37,-5.19,-5.61,0,*66
1530482547.24,4498,14.31,73570.8,-3.39,-5.31,-5.55,0,*6A
1530482548.47,4499,14.31,73570.3,-3.37,-5.35,-5.55,0,*61
1530482549.68,4500,14.25,73570.8,-3.37,-5.43,-5.47,0,*62
1530482550.92,4501,14.31,73572.5,-3.37,-5.43,-5.11,0,*60
1530482552.19,4502,14.31,73576.3,-3.37,-5.19,-4.93,0,*67
1530482553.44,4503,14.31,73576.3,-3.39,-5.07,-4.69,0,*62
1530482554.68,4504,14.25,73572.3,-3.37,-4.81,-4.57,0,*69
1530482555.89,4505,14.31,73574.5,-3.37,-4.53,-4.45,0,*64
1530482557.11,4506,14.31,73568.0,-3.37,-4.57,-4.45,0,*63
1530482558.3,4507,14.31,73560.3,-3.39,-4.33,-4.33,0,*6F
1530482559.51,4508,14.25,73558.5,-3.37,-4.41,-4.33,0,*6B
1530482560.74,4509,14.31,73558.0,-3.37,-4.29,-4.53,0,*62
1530482561.96,4510,14.31,73560.0,-3.37,-4.29,-4.53,0,*6A
1530482563.19,4511,14.25,73566.8,-3.37,-4.33,-4.65,0,*65
1530482564.43,4512,14.25,73564.8,-3.37,-4.41,-4.77,0,*60
1530482565.68,4513,14.31,73568.0,-3.37,-4.65,-5.23,0,*67
1530482566.95,4514,14.31,73572.3,-3.37,-4.81,-5.19,0,*63
1530482568.19,4515,14.31,73574.8,-3.39,-4.89,-5.19,0,*64
1530482569.43,4516,14.25,73572.5,-3.37,-4.89,-5.35,0,*67
1530482570.68,4517,14.31,73566.0,-3.37,-5.03,-5.47,0,*60
1530482571.92,4518,14.31,73566.8,-3.37,-5.11,-5.47,0,*6C
1530482573.18,4519,14.31,73568.3,-3.37,-5.11,-5.73,0,*6A
1530482574.45,4520,14.25,73564.8,-3.37,-5.31,-5.73,0,*62
1530482575.69,4521,14.25,73570.3,-3.39,-5.31,-5.73,0,*6D
1530482576.93,4522,14.25,73570.0,-3.37,-5.47,-5.69,0,*6A
1530482578.2,4523,14.31,73570.8,-3.37,-5.61,-5.61,0,*67
1530482579.46,4524,14.25,73568.5,-3.37,-5.55,-5.31,0,*62
1530482580.68,4525,14.25,73570.5,-3.39,-5.07,-5.35,0,*6E
1530482581.92,4526,14.31,73568.0,-3.37,-5.07,-5.35,0,*63
1530482583.16,4527,14.31,73568.8,-3.37,-5.11,-5.47,0,*60
1530482584.44,4528,14.31,73572.8,-3.37,-5.23,-5.23,0,*6C
1530482585.72,4529,14.31,73576.8,-3.37,-5.23,-5.11,0,*6C
1530482586.99,4530,14.25,73572.5,-3.37,-5.11,-5.03,0,*66
1530482588.23,4531,14.25,73572.0,-3.39,-5.11,-5.11,0,*6A
1530482589.5,4532,14.31,73572.5,-3.37,-5.07,-4.81,0,*68
1530482590.75,4533,14.31,73576.5,-3.39,-5.03,-4.81,0,*63
1530482592.01,4534,14.25,73572.3,-3.37,-4.93,-4.77,0,*6B
1530482593.27,4535,14.31,73578.3,-3.37,-4.81,-4.69,0,*66
1530482594.48,4536,14.31,73576.5,-3.39,-4.69,-4.53,0,*64
1530482595.68,4537,14.31,73574.8,-3.35,-4.65,-4.37,0,*67
1530482596.87,4538,14.25,73568.8,-3.39,-4.57,-4.33,0,*61
1530482598.09,4539,14.31,73570.0,-3.37,-4.57,-4.33,0,*6E
1530482599.28,4540,14.31,73566.0,-3.39,-4.53,-4.29,0,*61
1530482600.5,4541,14.31,73562.8,-3.37,-4.29,-4.21,0,*6B
1530482601.73,4542,14.31,73552.3,-3.37,-4.29,-4.21,0,*68
1530482602.95,4543,14.25,73546.0,-3.37,-4.29,-4.21,0,*69
1530482604.18,4544,14.31,73562.8,-3.37,-4.21,-4.21,0,*66
1530482605.41,4545,14.31,73560.8,-3.37,-4.21,-4.21,0,*67
1530482606.64,4546,14.31,73556.3,-3.37,-4.29,-4.21,0,*6C
1530482607.83,4547,14.31,73546.0,-3.39,-4.21,-4.17,0,*6E
1530482609.06,4548,14.31,73544.0,-3.37,-4.21,-4.13,0,*6B
1530482610.29,4549,14.31,73570.0,-3.37,-4.21,-4.13,0,*6A
1530482611.5,4550,14.25,73560.5,-3.37,-4.29,-4.17,0,*6E
1530482612.72,4551,14.31,73558.3,-3.37,-4.29,-4.17,0,*6F
1530482613.94,4552,14.31,73558.8,-3.37,-4.21,-4.17,0,*64
1530482615.15,4553,14.31,73550.8,-3.37,-4.13,-4.17,0,*64
1530482616.34,4554,14.31,73522.8,-3.39,-4.17,-4.17,0,*69
1530482617.55,4555,14.31,73538.3,-3.37,-4.17,-4.17,0,*66
1530482618.76,4556,14.31,73538.0,-3.37,-4.17,-4.17,0,*65
1530482619.95,4557,14.31,73550.0,-3.39,-4.13,-4.17,0,*6E
1530482621.13,4558,14.31,73560.8,-3.39,-4.17,-4.17,0,*65
1530482622.33,4559,14.25,73556.8,-3.35,-4.25,-4.17,0,*69
1530482623.53,4560,14.25,73550.0,-3.35,-4.29,-4.25,0,*6E
1530482624.75,4561,14.25,73560.3,-3.37,-4.41,-4.29,0,*6F
1530482625.96,4562,14.31,73556.3,-3.37,-4.45,-4.29,0,*68
1530482627.18,4563,14.31,73552.0,-3.37,-4.45,-4.21,0,*61
1530482628.38,4564,14.31,73554.0,-3.37,-4.45,-4.17,0,*63
1530482629.6,4565,14.31,73548.8,-3.37,-4.33,-4.17,0,*63
1530482630.82,4566,14.31,73536.0,-3.37,-4.21,-4.17,0,*63
1530482632.04,4567,14.31,73534.3,-3.37,-4.21,-4.17,0,*62
1530482633.26,4568,14.25,73538.5,-3.37,-4.21,-4.17,0,*6D
1530482634.46,4569,14.25,73534.5,-3.35,-4.13,-4.13,0,*6B
1530482635.65,4570,14.25,73536.5,-3.35,-4.13,-4.09,0,*68
1530482636.85,4571,14.31,73546.5,-3.35,-4.17,-4.13,0,*66
1530482638.05,4572,14.31,73558.8,-3.35,-4.13,-4.09,0,*6A
1530482639.24,4573,14.31,73556.5,-3.35,-4.09,-4.09,0,*60
1530482640.44,4574,14.31,73556.5,-3.35,-4.09,-4.13,0,*6C
1530482641.63,4575,14.25,73552.8,-3.35,-4.13,-4.13,0,*66
1530482642.85,4576,14.31,73560.0,-3.33,-4.17,-4.37,0,*61
1530482644.08,4577,14.31,73562.0,-3.33,-4.29,-4.29,0,*62
1530482645.27,4578,14.25,73552.3,-3.35,-4.17,-4.37,0,*69
1530482646.47,4579,14.31,73554.0,-3.35,-4.29,-4.53,0,*67
1530482647.7,4580,14.25,73548.8,-3.33,-4.29,-4.53,0,*67
1530482648.89,4581,14.25,73546.5,-3.35,-4.41,-4.61,0,*6F
1530482650.09,4582,14.31,73562.3,-3.35,-4.41,-4.61,0,*6C
1530482651.31,4583,14.25,73566.0,-3.33,-4.41,-4.61,0,*6B
1530482652.53,4584,14.25,73570.0,-3.35,-4.61,-4.73,0,*6B
1530482653.75,4585,14.31,73580.8,-3.35,-4.65,-4.85,0,*67
1530482655.02,4586,14.31,73578.5,-3.33,-4.85,-5.07,0,*67
1530482656.27,4587,14.31,73582.0,-3.33,-5.07,-4.99,0,*6B
1530482657.49,4588,14.31,73582.5,-3.35,-5.43,-4.89,0,*63
1530482658.72,4589,14.31,73568.0,-3.35,-5.55,-4.89,0,*65
1530482659.96,4590,14.31,73562.5,-3.37,-5.47,-4.77,0,*6D
1530482661.2,4591,14.25,73564.0,-3.37,-5.11,-4.45,0,*6E
1530482662.43,4592,14.25,73556.5,-3.37,-4.69,-4.33,0,*62
1530482663.65,4593,14.25,73562.3,-3.37,-4.45,-4.21,0,*6E
1530482664.87,4594,14.31,73570.8,-3.37,-4.33,-4.29,0,*60
1530482666.11,4595,14.25,73558.5,-3.37,-4.21,-4.21,0,*6A
1530482667.33,4596,14.25,73554.5,-3.37,-4.21,-4.17,0,*6C
1530482668.54,4597,14.25,73550.5,-3.37,-4.17,-4.17,0,*68
1530482669.76,4598,14.25,73554.0,-3.37,-4.17,-4.13,0,*63
1530482670.97,4599,14.31,73550.8,-3.37,-4.17,-4.17,0,*66
1530482672.19,4600,14.31,73550.0,-3.37,-4.17,-4.17,0,*65
1530482673.4,4601,14.25,73552.3,-3.37,-4.17,-4.17,0,*64
1530482674.62,4602,14.25,73566.3,-3.37,-4.21,-4.17,0,*62
1530482675.85,4603,14.25,73572.3,-3.37,-4.21,-4.29,0,*6E
1530482677.04,4604,14.31,73574.8,-3.35,-4.13,-4.17,0,*67
1530482678.23,4605,14.31,73572.8,-3.35,-4.17,-4.17,0,*62
1530482679.42,4606,14.31,73568.3,-3.35,-4.17,-4.17,0,*61
1530482680.65,4607,14.31,73570.5,-3.33,-4.25,-4.25,0,*66
1530482681.86,4608,14.25,73566.5,-3.33,-4.17,-4.17,0,*69
1530482683.06,4609,14.31,73568.0,-3.35,-4.25,-4.17,0,*6F
1530482684.25,4610,14.25,73566.8,-3.35,-4.17,-4.17,0,*66
1530482685.44,4611,14.31,73564.3,-3.35,-4.17,-4.17,0,*67
1530482686.63,4612,14.25,73564.8,-3.35,-4.17,-4.17,0,*64
1530482687.84,4613,14.25,73568.0,-3.33,-4.17,-4.17,0,*63
1530482689.04,4614,14.25,73570.8,-3.35,-4.17,-4.25,0,*63
1530482690.24,4615,14.25,73572.3,-3.35,-4.17,-4.25,0,*62
1530482691.44,4616,14.25,73574.3,-3.35,-4.25,-4.29,0,*6C
1530482692.63,4617,14.25,73572.3,-3.35,-4.37,-4.41,0,*60
1530482693.82,4618,14.25,73572.0,-3.35,-4.37,-4.37,0,*6E
1530482695.02,4619,14.25,73572.5,-3.35,-4.41,-4.29,0,*61
1530482696.21,4620,14.25,73570.3,-3.35,-4.41,-4.37,0,*64
1530482697.43,4621,14.31,73554.5,-3.37,-4.53,-4.41,0,*65
1530482698.63,4622,14.25,73544.8,-3.35,-4.29,-4.25,0,*6B
1530482699.82,4623,14.25,73544.3,-3.35,-4.17,-4.17,0,*66
1530482701.01,4624,14.25,73538.8,-3.35,-4.17,-4.17,0,*61
1530482702.2,4625,14.31,73528.3,-3.35,-4.17,-4.17,0,*60
1530482703.39,4626,14.25,73536.3,-3.35,-4.17,-4.09,0,*6C
1530482704.59,4627,14.25,73556.5,-3.35,-4.17,-4.13,0,*66
1530482705.78,4628,14.25,73552.5,-3.35,-4.09,-4.09,0,*6D
1530482707.0,4629,14.25,73550.5,-3.35,-4.09,-4.01,0,*64
1530482708.19,4630,14.25,73546.0,-3.35,-4.17,-4.17,0,*64
1530482709.41,4631,14.25,73536.3,-3.33,-4.17,-4.17,0,*63
1530482710.6,4632,14.25,73560.8,-3.35,-4.17,-4.13,0,*62
1530482711.8,4633,14.25,73574.8,-3.35,-4.09,-4.13,0,*6C
1530482713.0,4634,14.31,73572.5,-3.35,-4.13,-4.13,0,*60
1530482714.19,4635,14.25,73560.0,-3.35,-4.13,-4.09,0,*6A
1530482715.39,4636,14.25,73540.3,-3.35,-4.13,-4.13,0,*62
1530482716.59,4637,14.31,73530.3,-3.35,-4.13,-4.13,0,*63
1530482717.78,4638,14.31,73548.5,-3.35,-4.17,-4.13,0,*68
1530482719.0,4639,14.31,73550.8,-3.33,-4.09,-4.13,0,*60
1530482720.19,4640,14.31,73568.3,-3.35,-4.13,-4.17,0,*67
1530482721.39,4641,14.25,73574.5,-3.35,-4.13,-4.25,0,*67
1530482722.58,4642,14.25,73550.8,-3.35,-4.37,-4.61,0,*62
1530482723.78,4643,14.25,73560.0,-3.35,-4.41,-4.61,0,*62
1530482725.02,4644,14.25,73552.0,-3.35,-4.77,-4.85,0,*6A
1530482726.26,4645,14.25,73554.0,-3.35,-4.85,-4.77,0,*6B
1530482727.46,4646,14.25,73548.0,-3.35,-4.65,-4.53,0,*60
1530482728.65,4647,14.31,73556.0,-3.35,-4.41,-4.49,0,*6C
1530482729.84,4648,14.25,73556.5,-3.35,-4.49,-4.49,0,*6B
1530482731.04,4649,14.25,73560.8,-3.35,-4.61,-4.53,0,*6B
1530482732.25,4650,14.25,73570.3,-3.35,-4.85,-4.53,0,*69
1530482733.47,4651,14.25,73552.8,-3.35,-4.73,-4.41,0,*62
1530482734.66,4652,14.25,73532.0,-3.35,-4.41,-4.29,0,*6E
1530482735.85,4653,14.25,73568.5,-3.35,-4.37,-4.17,0,*63
1530482737.07,4654,14.25,73582.5,-3.37,-4.33,-4.29,0,*6F
1530482738.26,4655,14.25,73558.8,-3.35,-4.49,-4.41,0,*6F
1530482739.46,4656,14.25,73558.0,-3.35,-4.29,-4.17,0,*69
1530482740.65,4657,14.25,73562.0,-3.35,-4.37,-4.25,0,*66
1530482741.85,4658,14.31,73566.0,-3.35,-4.29,-4.25,0,*66
1530482743.07,4659,14.25,73562.5,-3.37,-4.29,-4.29,0,*69
1530482744.33,4660,14.25,73554.3,-3.37,-4.69,-4.69,0,*63
1530482745.56,4661,14.31,73550.8,-3.37,-4.57,-4.57,0,*62
1530482746.78,4662,14.31,73550.0,-3.37,-4.41,-4.41,0,*61
1530482748.0,4663,14.31,73546.5,-3.37,-4.57,-4.57,0,*60
1530482749.22,4664,14.25,73544.3,-3.37,-4.45,-4.53,0,*60
1530482750.43,4665,14.31,73548.8,-3.37,-4.53,-4.65,0,*63
1530482751.68,4666,14.25,73540.3,-3.37,-4.57,-4.81,0,*6E
1530482752.9,4667,14.25,73538.0,-3.35,-4.53,-4.89,0,*61
1530482754.15,4668,14.25,73536.0,-3.37,-4.65,-5.11,0,*69
1530482755.39,4669,14.25,73548.0,-3.37,-4.89,-5.47,0,*69
1530482756.63,4670,14.25,73556.0,-3.37,-5.03,-5.43,0,*66
1530482757.85,4671,14.25,73552.8,-3.39,-5.03,-5.43,0,*69
1530482759.12,4672,14.25,73554.8,-3.37,-5.11,-5.19,0,*68
1530482760.37,4673,14.25,73550.8,-3.39,-5.03,-5.11,0,*6C
1530482761.6,4674,14.25,73554.8,-3.39,-4.93,-5.23,0,*62
1530482762.88,4675,14.25,73560.5,-3.37,-5.07,-5.07,0,*67
1530482764.15,4676,14.25,73572.0,-3.37,-4.93,-5.03,0,*6C
1530482765.42,4677,14.25,73568.5,-3.37,-4.81,-5.19,0,*65
1530482766.65,4678,14.25,73564.8,-3.37,-5.11,-6.09,0,*60
1530482767.9,4679,14.25,73560.5,-3.37,-5.47,-6.23,0,*6A
1530482769.14,4680,14.25,73580.5,-3.37,-5.81,-6.01,0,*66
1530482770.32,4681,14.31,73578.3,-3.39,-6.39,-5.97,0,*65
1530482771.55,4682,14.25,73566.8,-3.39,-6.81,-5.23,0,*6A
1530482772.82,4683,14.31,73560.3,-3.37,-6.23,-4.81,0,*64
1530482774.06,4684,14.31,73556.3,-3.37,-5.03,-4.45,0,*6A
1530482775.28,4685,14.25,73560.3,-3.37,-4.65,-4.29,0,*60
1530482776.47,4686,14.25,73562.3,-3.39,-4.45,-4.21,0,*67
1530482777.7,4687,14.25,73550.3,-3.37,-4.21,-4.21,0,*6A
1530482778.89,4688,14.25,73552.5,-3.39,-4.21,-4.17,0,*6E
1530482780.12,4689,14.31,73570.3,-3.37,-4.21,-4.13,0,*65
1530482781.34,4690,14.25,73556.0,-3.37,-4.33,-4.33,0,*6C
1530482782.56,4691,14.25,73564.5,-3.37,-4.33,-4.33,0,*6D
1530482783.78,4692,14.25,73576.0,-3.37,-4.29,-4.29,0,*6E
1530482784.97,4693,14.25,73560.8,-3.39,-4.33,-4.41,0,*64
1530482786.2,4694,14.31,73562.0,-3.37,-4.29,-4.41,0,*66
1530482787.42,4695,14.31,73568.8,-3.37,-4.33,-4.41,0,*6C
1530482788.64,4696,14.25,73566.8,-3.37,-4.33,-4.41,0,*6F
1530482789.86,4697,14.31,73570.0,-3.37,-4.33,-4.29,0,*60
1530482791.09,4698,14.31,73572.5,-3.37,-4.29,-4.29,0,*64
1530482792.3,4699,14.25,73570.8,-3.37,-4.29,-4.41,0,*6B
1530482793.53,4700,14.31,73578.8,-3.37,-4.41,-4.65,0,*62
1530482794.73,4701,14.25,73576.0,-3.37,-4.45,-4.45,0,*65
1530482795.95,4702,14.25,73576.0,-3.37,-4.45,-4.53,0,*61
1530482797.16,4703,14.25,73574.5,-3.37,-4.53,-4.45,0,*60
1530482798.38,4704,14.31,73574.8,-3.37,-4.57,-4.33,0,*62
1530482799.59,4705,14.25,73572.3,-3.37,-4.45,-4.21,0,*63
1530482800.79,4706,14.31,73578.3,-3.39,-4.33,-4.21,0,*6F
1530482802.02,4707,14.25,73572.8,-3.37,-4.33,-4.29,0,*68
1530482803.24,4708,14.25,73568.3,-3.37,-4.33,-4.29,0,*67
1530482804.43,4709,14.31,73560.5,-3.39,-4.33,-4.33,0,*63
1530482805.66,4710,14.31,73566.8,-3.37,-4.21,-4.21,0,*65
1530482806.9,4711,14.25,73570.5,-3.37,-4.21,-4.21,0,*64
1530482808.12,4712,14.25,73574.8,-3.37,-4.21,-4.17,0,*62
1530482809.34,4713,14.25,73568.3,-3.37,-4.21,-4.17,0,*63
1530482810.54,4714,14.25,73566.0,-3.35,-4.13,-4.13,0,*63
1530482811.75,4715,14.25,73562.0,-3.37,-4.17,-4.13,0,*64
1530482812.97,4716,14.25,73562.0,-3.37,-4.17,-4.13,0,*67
1530482814.19,4717,14.25,73530.5,-3.37,-4.17,-4.13,0,*66
1530482815.41,4718,14.25,73544.5,-3.37,-4.13,-4.13,0,*6D
1530482816.61,4719,14.25,73542.5,-3.35,-4.09,-4.13,0,*65
1530482817.83,4720,14.25,73530.3,-3.37,-4.13,-4.13,0,*66
1530482819.05,4721,14.25,73534.5,-3.37,-4.13,-4.17,0,*63
1530482820.27,4722,14.25,73550.8,-3.37,-4.13,-4.13,0,*64
1530482821.52,4723,14.25,73558.8,-3.37,-4.01,-4.05,0,*61
1530482822.74,4724,14.25,73562.0,-3.35,-4.13,-4.01,0,*63
1530482823.99,4725,14.25,73560.5,-3.35,-4.01,-4.01,0,*61
1530482825.24,4726,14.25,73560.0,-3.33,-3.95,-4.01,0,*6E
1530482826.49,4727,14.25,73564.0,-3.35,-4.01,-4.01,0,*63
1530482827.68,4728,14.25,73562.5,-3.35,-4.09,-4.09,0,*6C
1530482828.9,4729,14.25,73562.3,-3.35,-4.09,-4.01,0,*65
1530482830.15,4730,14.25,73558.3,-3.35,-4.01,-4.01,0,*65
1530482831.4,4731,14.25,73558.8,-3.35,-4.01,-4.01,0,*64
1530482832.66,4732,14.25,73560.8,-3.35,-4.01,-4.01,0,*67
1530482833.88,4733,14.25,73570.5,-3.37,-4.05,-4.05,0,*64
1530482835.09,4734,14.25,73566.8,-3.33,-4.09,-4.09,0,*67
1530482836.29,4735,14.25,73562.5,-3.35,-4.13,-4.09,0,*6B
1530482837.48,4736,14.25,73560.5,-3.35,-4.13,-4.13,0,*63
1530482838.68,4737,14.25,73560.8,-3.35,-4.09,-4.09,0,*62
1530482839.87,4738,14.25,73552.8,-3.35,-4.09,-4.09,0,*6D
1530482841.12,4739,14.25,73550.3,-3.33,-4.13,-4.01,0,*69
1530482842.31,4740,14.25,73568.3,-3.35,-4.09,-4.09,0,*62
1530482843.53,4741,14.25,73560.8,-3.33,-4.13,-4.13,0,*65
1530482844.73,4742,14.25,73556.8,-3.35,-4.17,-4.29,0,*6D
1530482845.92,4743,14.25,73558.8,-3.35,-4.17,-4.17,0,*61
1530482847.14,4744,14.25,73566.5,-3.33,-4.29,-4.29,0,*60
1530482848.33,4745,14.25,73558.0,-3.35,-4.25,-4.17,0,*66
1530482849.53,4746,14.25,73562.3,-3.35,-4.17,-4.25,0,*65
1530482850.73,4747,14.25,73558.5,-3.35,-4.17,-4.29,0,*68
1530482851.93,4748,14.25,73564.5,-3.35,-4.25,-4.37,0,*69
1530482853.13,4749,14.31,73570.8,-3.35,-4.29,-4.41,0,*65
1530482854.32,4750,14.25,73572.0,-3.35,-4.41,-4.53,0,*60
1530482855.52,4751,14.25,73572.0,-3.35,-4.41,-4.61,0,*60
1530482856.74,4752,14.25,73572.0,-3.35,-4.61,-4.77,0,*66
1530482857.96,4753,14.25,73572.5,-3.33,-4.61,-4.65,0,*62
1530482859.16,4754,14.25,73568.5,-3.35,-4.61,-4.61,0,*67
1530482860.35,4755,14.25,73556.3,-3.35,-4.53,-4.41,0,*65
1530482861.54,4756,14.25,73552.3,-3.35,-4.41,-4.49,0,*6D
1530482862.74,4757,14.25,73562.8,-3.35,-4.41,-4.49,0,*6C
1530482863.95,4758,14.25,73558.3,-3.33,-4.37,-4.61,0,*6E
1530482865.17,4759,14.25,73566.8,-3.35,-4.37,-4.73,0,*6A
1530482866.38,4760,14.25,73562.5,-3.35,-4.49,-4.77,0,*6D
1530482867.6,4761,14.25,73572.0,-3.35,-4.85,-5.51,0,*69
1530482868.85,4762,14.25,73578.8,-3.35,-5.15,-5.65,0,*65
1530482870.1,4763,14.25,73576.3,-3.35,-5.69,-5.69,0,*63
1530482871.29,4764,14.25,73576.3,-3.35,-6.89,-5.39,0,*6C
1530482872.51,4765,14.25,73572.8,-3.35,-6.47,-4.85,0,*69
1530482873.76,4766,14.25,73574.8,-3.35,-5.65,-4.73,0,*60
1530482874.98,4767,14.25,73570.8,-3.35,-4.89,-4.49,0,*6B
1530482876.17,4768,14.25,73574.8,-3.35,-4.41,-4.41,0,*68
1530482877.37,4769,14.25,73574.3,-3.35,-4.37,-4.37,0,*69
1530482878.58,4770,14.25,73568.0,-3.33,-4.41,-4.41,0,*67
1530482879.8,4771,14.25,73570.0,-3.37,-4.41,-4.65,0,*64
1530482881.06,4772,14.25,73568.8,-3.37,-4.57,-5.19,0,*6A
1530482882.32,4773,14.25,73568.8,-3.37,-5.07,-6.23,0,*65
1530482883.54,4774,14.25,73576.0,-3.37,-7.15,-7.53,0,*65
1530482884.78,4775,14.25,73578.8,-3.37,-7.27,-6.77,0,*62
1530482886.03,4776,14.25,73570.8,-3.37,-7.57,-6.59,0,*6A
1530482887.3,4777,14.25,73572.3,-3.37,-6.93,-5.69,0,*62
1530482888.54,4778,14.25,73574.3,-3.39,-6.63,-5.31,0,*61
1530482889.79,4779,14.25,73576.8,-3.37,-6.01,-5.07,0,*6F
1530482891.02,4780,14.25,73570.8,-3.39,-5.55,-5.11,0,*62
1530482892.27,4781,14.25,73572.8,-3.39,-5.31,-5.07,0,*66
1530482893.5,4782,14.25,73570.5,-3.45,-4.85,-4.81,0,*6F
1530482894.76,4783,14.25,73566.0,-3.43,-4.81,-4.69,0,*6A
1530482895.97,4784,14.25,73564.0,-3.43,-4.61,-4.49,0,*61
1530482897.18,4785,14.25,73552.5,-3.43,-4.49,-4.49,0,*6A
1530482898.4,4786,14.25,73560.3,-3.43,-4.33,-4.33,0,*69
1530482899.61,4787,14.25,73556.5,-3.43,-4.33,-4.33,0,*68
1530482900.82,4788,14.25,73554.0,-3.43,-4.45,-4.37,0,*62
1530482902.04,4789,14.25,73548.5,-3.43,-4.57,-4.49,0,*69
1530482903.26,4790,14.25,73532.0,-3.43,-4.33,-4.37,0,*6A
1530482904.48,4791,14.25,73526.3,-3.43,-4.33,-4.37,0,*6B
1530482905.69,4792,14.25,73532.3,-3.43,-4.37,-4.37,0,*6C
1530482906.91,4793,14.25,73528.0,-3.43,-4.33,-4.25,0,*6A
1530482908.13,4794,14.25,73528.8,-3.43,-4.25,-4.25,0,*6A
1530482909.35,4795,14.25,73532.5,-3.43,-4.25,-4.25,0,*6B
1530482910.56,4796,14.25,73542.8,-3.43,-4.17,-4.09,0,*67
1530482911.77,4797,14.25,73550.8,-3.43,-4.17,-4.09,0,*66